Location: Carbonear
(47.7333°N, 53.2500°W)
Time: 05:48:42
(UTC+00:00)

Oscar 11 - Pass Details

Date: 08 December 2022
Orbit: 611 x 621 km, 97.6° (Epoch: 28 January)

Event Time Altitude Azimuth Distance (km) Brightness Sun altitude
Rises 20:14:54 0° 200° (SSW) 2,876 11.3 -5.7°
Reaches altitude 10° 20:17:29 10° 216° (SW) 1,974 10.8 -6.1°
Maximum altitude 20:20:50 22° 267° (W) 1,357 9.8 -6.6°
Drops below altitude 10° 20:24:12 10° 319° (NW) 1,983 9.9 -7.1°
Sets 20:26:49 0° 335° (NNW) 2,892 10.5 -7.5°
